This demonstration page uses our WeatherBlox Daily Observations layout. Learn more.

Left ArrowRight Arrow

39.08367, -84.50855

Hourly Observations for June 18, 2015

Temp ( °F °C ) Dew Point ( °F °C ) Humidity (%) Winds ( mph kmh ) Pressure ( in mb ) Visibility ( mi km ) Precip ( " mm )
12:53 am 00:53 Clear with Mist and Fog 70 21.1 70 21.1 100 100 N N/A 30.02 1017 5 8.0467 N/A
1:53 am 01:53 Clear 71 21.7 71 21.7 100 100 N N/A 30.02 1017 10 16.0934 N/A
2:53 am 02:53 Clear with Mist and Fog 71 21.7 70 21.1 96 96 N N/A 30.02 1017 6 9.65604 N/A
3:04 am 03:04 Clear with Mist and Fog 70 21 70 21 100 100 N N/A 30 1016 1.75 2.816345 N/A
3:21 am 03:21 Mostly Cloudy with Mist and Fog 70 21.1 70 21.1 100 100 N N/A 30 1016 0.75 1.207005 N/A
3:37 am 03:37 Clear with Mist and Fog 69 20.6 69 20.6 100 100 N N/A 30 1016 0.75 1.207005 N/A
3:43 am 03:43 Mostly Cloudy with Mist and Fog 69 20.6 69 20.6 100 100 N N/A 30 1016 0.75 1.207005 N/A
3:53 am 03:53 Mostly Cloudy with Fog 69 20.6 69 20.6 100 100 N N/A 30.02 1017 0.5 0.80467 N/A
4:33 am 04:33 Mostly Cloudy with Fog 69 20.6 69 20.6 100 100 N N/A 30 1016 0.25 0.402335 N/A
4:35 am 04:35 Mostly Cloudy with Fog 69 20.6 69 20.6 100 100 N N/A 30 1016 0.5 0.80467 N/A
4:53 am 04:53 Partly Cloudy with Mist and Fog 69 20.6 69 20.6 100 100 N N/A 30.01 1016 3 4.82802 N/A
5:05 am 05:05 Clear with Mist and Fog 68 20 68 20 100 100 S 3 6 30 1016 1.75 2.816345 N/A
5:19 am 05:19 Clear with Mist and Fog 68 20 68 20 100 100 S 6 9 30 1016 3 4.82802 N/A
5:53 am 05:53 Clear 69 20.6 69 20.6 100 100 SSW 3 6 30.01 1016 10 16.0934 N/A
6:53 am 06:53 Sunny 70 21.1 69 20.6 97 97 N N/A 30.03 1017 10 16.0934 N/A
7:53 am 07:53 Sunny 73 22.8 71 21.7 94 94 S 3 6 30.03 1017 10 16.0934 N/A
8:53 am 08:53 Sunny 76 24.4 72 22.2 88 88 SSW 5 7 30.03 1017 10 16.0934 N/A
9:53 am 09:53 Mostly Sunny 78 25.6 71 21.7 79 79 WSW 5 7 30.04 1017 10 16.0934 N/A
10:53 am 10:53 Sunny 82 27.8 72 22.2 72 72 VRB 3 6 30.04 1017 10 16.0934 N/A
11:53 am 11:53 Sunny 84 28.9 71 21.7 65 65 WSW 12 19 30.04 1017 10 16.0934 N/A
12:53 pm 12:53 Mostly Sunny 85 29.4 72 22.2 65 65 W 12 19 30.04 1017 10 16.0934 N/A
1:53 pm 13:53 Mostly Sunny 87 30.6 72 22.2 61 61 WSW 13 20 30.01 1016 10 16.0934 N/A
2:53 pm 14:53 Partly Cloudy 87 30.6 71 21.7 59 59 SW 8 13 29.99 1016 10 16.0934 N/A
3:53 pm 15:53 Mostly Sunny 85 29.4 72 22.2 65 65 SSW 12 19 29.96 1015 10 16.0934 N/A
4:53 pm 16:53 Partly Cloudy with Nearby Thunderstorms 83 28.3 72 22.2 70 70 SW 12 19 29.97 1015 10 16.0934 N/A
5:01 pm 17:01 Partly Cloudy with Thunderstorms 82 27.8 70 21.1 67 67 SSW 12 19 29.97 1015 10 16.0934 N/A
5:12 pm 17:12 Partly Cloudy 81 27 72 22 74 74 SSW 10 17 29.97 1015 10 16.0934 N/A
5:53 pm 17:53 Cloudy with Light Rain 77 25 72 22.2 85 85 SSW 5 7 29.97 1015 7 11.26538 0.02 0.508
6:40 pm 18:40 Mostly Cloudy 75 24 70 21 83 83 ENE 5 7 30 1016 10 16.0934 N/A
6:53 pm 18:53 Cloudy 74 23.3 70 21.1 88 88 ESE 3 6 30.01 1016 10 16.0934 0.01 0.254
7:03 pm 19:03 Cloudy 73 23 72 22 94 94 N N/A 30 1016 10 16.0934 N/A
7:47 pm 19:47 Cloudy with Thunderstorms 73 23 72 22 94 94 WSW 7 11 30.03 1017 10 16.0934 N/A
7:53 pm 19:53 Cloudy with Thunderstorms 74 23.3 71 21.7 91 91 SSW 10 17 30.05 1018 2 3.21868 0.04 1.016
8:00 pm 20:00 Cloudy with Thunderstorms 73 23 72 22 94 94 SSW 8 13 30.03 1017 3 4.82802 N/A
8:25 pm 20:25 Cloudy with Thunderstorms 72 22.2 70 21.1 94 94 SW 9 15 30.06 1018 3 4.82802 0.23 5.842
8:36 pm 20:36 Cloudy with Thunderstorms 70 21 70 21 100 100 SSW 7 11 30.06 1018 3 4.82802 N/A
8:53 pm 20:53 Cloudy with Thunderstorms 70 21.1 69 20.6 97 97 SSW 5 7 30.07 1018 3 4.82802 0.3 7.62
9:53 pm 21:53 Cloudy with Light Rain 70 21.1 70 21.1 100 100 N N/A 30.04 1017 3 4.82802 0.16 4.064
10:53 pm 22:53 Mostly Cloudy 70 21.1 69 20.6 97 97 N N/A 30.01 1016 10 16.0934 N/A
11:53 pm 23:53 Clear 70 21.1 70 21.1 100 100 N N/A 30.04 1017 10 16.0934 N/A

Powered by AerisWeather